Location: ČR
(50.0000°N, 15.0000°E)
Time: 21:31:48
(UTC+00:00)

Vanguard 3 - Pass Details

Date: 28 October 2021
Orbit: 508 x 3260 km, 33.4° (Epoch: 04 December)

Event Time Altitude Azimuth Distance (km) Brightness Sun altitude
Rises 15:15:33 0° 219° (SW) 2,959 11.4 3.3°
Reaches altitude 10° 15:18:31 10° 194° (SSW) 2,321 10.1 2.9°
Maximum altitude 15:21:35 15° 159° (SSE) 2,286 9.5 2.5°
Drops below altitude 10° 15:25:30 10° 126° (SE) 3,097 9.8 1.9°
Sets 15:30:35 0° 108° (ESE) 4,674 10.6 1.1°
